Terminal Aerodrome Forecast
Issued by NWS

Home | Current Version | Previous Version | Text Only | Print | Product List | Glossary On
Versions: 1 2 3 4 5 6 7 8 9 10 11 12 13 14 15 16 17
000
FTAK31 PANC 252112 AAB
TAFADU
TAF AMD
PADU 252112Z 2521/2618 14010G21KT P6SM SCT030
     FM260000 14012G24KT P6SM FEW025 BKN050
     FM260900 13010KT P6SM OVC025=

USA.gov is the U.S. government's official web portal to all federal, state and local government web resources and services.